This demonstration page uses our WeatherBlox Daily Observations layout. Learn more.

Left ArrowRight Arrow

Hourly Observations for May 28, 2022

Temp ( °F °C ) Dew Point ( °F °C ) Humidity (%) Winds ( mph kmh ) Pressure ( in mb ) Visibility ( mi km ) Precip ( " mm )
12:51 am 00:51 Clear 79 26.1 32 0 18 18 NNW 14 22 29.69 1005 10 16 0.00 0.00
1:51 am 01:51 Clear 76 24.4 31 -0.6 19 19 NNW 9 15 29.69 1005 10 16 0.00 0.00
2:51 am 02:51 Clear 75 23.9 29 -1.7 18 18 NW 9 15 29.68 1005 10 16 0.00 0.00
3:51 am 03:51 Clear 69 20.6 30 -1.1 23 23 NNW 6 9 29.70 1006 10 16 0.00 0.00
4:51 am 04:51 Clear 66 18.9 29 -1.7 25 25 SSE 3 6 29.71 1006 10 16 0.00 0.00
5:51 am 05:51 Sunny 65 18.3 28 -2.2 25 25 ESE 7 11 29.72 1007 10 16 0.00 0.00
6:51 am 06:51 Sunny 72 22.2 29 -1.7 20 20 ESE 7 11 29.73 1007 10 16 0.00 0.00
7:51 am 07:51 Sunny 77 25 28 -2.2 16 16 SE 3 6 29.73 1007 10 16 0.00 0.00
8:51 am 08:51 Sunny 83 28.3 26 -3.3 12 12 VRB 3 6 29.72 1006 10 16 0.00 0.00
9:51 am 09:51 Sunny 86 30 25 -3.9 11 11 SSW 5 7 29.70 1006 10 16 0.00 0.00
10:51 am 10:51 Sunny 87 30.6 25 -3.9 10 10 VRB 3 6 29.69 1006 10 16 0.00 0.00
11:51 am 11:51 Sunny 92 33.3 25 -3.9 9 9 N 9 15 29.67 1005 10 16 0.00 0.00
12:51 pm 12:51 Sunny 92 33.3 21 -6.1 7 7 SW 9 15 29.63 1004 10 16 0.00 0.00
1:51 pm 13:51 Sunny 96 35.6 13 -10.6 5 5 NW 18 30 29.60 1002 10 16 0.00 0.00
2:51 pm 14:51 Sunny 95 35 15 -9.4 5 5 NNW 16 26 29.57 1001 10 16 0.00 0.00
3:51 pm 15:51 Sunny 96 35.6 15 -9.4 5 5 W 14 22 29.55 1001 10 16 0.00 0.00
4:51 pm 16:51 Sunny 95 35 18 -7.8 6 6 WNW 18 30 29.54 1000 10 16 0.00 0.00
5:51 pm 17:51 Sunny 93 33.9 14 -10 5 5 SW 12 19 29.52 1000 10 16 0.00 0.00
6:51 pm 18:51 Sunny 90 32.2 8 -13.3 4 4 W 15 24 29.51 999 10 16 0.00 0.00
7:51 pm 19:51 Clear 87 30.6 7 -13.9 5 5 W 15 24 29.52 1000 10 16 0.00 0.00
8:51 pm 20:51 Clear 79 26.1 8 -13.3 6 6 NW 10 17 29.53 1000 10 16 0.00 0.00
9:51 pm 21:51 Clear 80 26.7 6 -14.4 6 6 NW 13 20 29.54 1000 10 16 0.00 0.00
10:51 pm 22:51 Clear 76 24.4 7 -13.9 7 7 NW 9 15 29.54 1000 10 16 0.00 0.00
11:51 pm 23:51 Clear 76 24.4 9 -12.8 7 7 NNW 10 17 29.52 1000 10 16 0.00 0.00

Powered by AerisWeather